Hovedside
METAR-TAF:

METAR-TAF

Lufthavner :

Sandnessjøen, Norge

Sandnessjøen lufthavn

breddegrad: 65-58N, lengdegrad: 012-28E, høyde over havet: 1 m

Gjeldene værobservasjon

Denne rapporten ble laget for 20 minutter siden, klokken 04:20 UTC
Vind 8 kt fra Øst-nordøst
Temperatur 2°C
Luftfuktighet 60%
Trykk 1007 hPa
Sikt 10 km eller mer
Få skyer i en høyde av 5000 ft

METAR: ENST 250420Z 06008KT 9999 FEW050 02/M05 Q1007 RMK WIND 300FT 07010KT

Tid: 06:40 (04:40 UTC)


TAF: fraværende

Værobservasjoner og værvarsel for over 4000 flyplasser (METAR- og TAF-rapporter).

Tilgjengelige stasjoner er representert av de røde og gule prikkene på kartet.

Hold musepekeren over prikken for å se navnet på stasjonen.

Klikk så for å se værobservasjoner og -varsler.

For å forandre kartet kan du klikke på den grønne knappen med svart kryss for å zoome inn, på den grønne knappen med strek for å zoome ut, eller på de grønne pilene for å se tilstøtende kart.


METAR-TAF: